Location: Unspecified
(45.7810°N, 0.0000°E)
Time: 12:54:15
(UTC+00:00)

Tiangong 2 - Visible Passes

Search period start: 18 July 2019 00:00
Search period end: 28 July 2019 00:00
Orbit: 378 x 386 km, 42.8° (Epoch: 18 July)

Date Brightness Start Highest point End Pass type
(mag) Time Alt. Az. Time Alt. Az. Time Alt. Az.
18 Jul 3.1 21:49:40 10° WSW 21:51:17 17° SW 21:51:17 17° SW visible
19 Jul 2.4 20:49:02 10° WSW 20:51:42 25° SSW 20:53:28 16° SSE visible
20 Jul 3.5 21:26:24 10° SW 21:27:36 12° SSW 21:27:50 12° SSW visible
21 Jul 3.0 20:25:15 10° WSW 20:27:29 18° SSW 20:29:43 10° SSE visible
